Miscellaneous Local Product
Issued by NWS North Platte, NE

Home | Current Version | Previous Version | Text Only | Print | Product List | Glossary On
Versions: 1 2 3 4 5 6 7 8 9 10 11 12 13 14 15 16 17 18 19 20 21 22 23 24 25 26 27 28 29 30 31 32 33 34 35 36 37 38 39 40 41 42 43 44 45 46 47 48 49 50
000
AXUS43 KLBF 191510
MISLBF


WESTERN AND NORTH CENTRAL NEBRASKA HOURLY WEATHER ROUNDUP
NATIONAL WEATHER SERVICE NORTH PLATTE NE
900 AM CST SUN FEB 19 2017

NOTE: "FAIR" INDICATES FEW OR NO CLOUDS BELOW 12,000 FEET WITH NO
SIGNIFICANT WEATHER AND/OR OBSTRUCTIONS TO VISIBILITY.

NOTE: STATIONS NOT REPORTING VARIABLES SUCH AS SKY/WEATHER OR
PRESSURE ARE PROVIDED BY RAWS AND APRS NETWORKS AND ARE NOT UNDER
NATIONAL WEATHER SERVICE QUALITY CONTROL.

...OBSERVATIONS IN AND NEAR THE EASTERN PANHANDLE OF NEBRASKA...

CITY           SKY/WX    TMP DP  RH WIND       PRES   REMARKS
PINE RIDGE     SUNNY     41  33  73 SW5       29.62R
CHADRON        CLOUDY    42  30  62 SW6       29.62R
ALLIANCE       CLOUDY    29  26  89 CALM      29.65R
SIDNEY         CLOUDY    37  26  64 W7        29.68R WCI  32
CRESCENT LAKE    N/A     38  31  76 S3          N/A
$$

...OBSERVATIONS IN NORTHERN NEBRASKA AND FAR SOUTHERN SOUTH DAKOTA...

CITY           SKY/WX    TMP DP  RH WIND       PRES   REMARKS
WINNER         FAIR      50  37  61 S10       29.63F
VALENTINE      CLOUDY    46  34  62 S16       29.63F
THEDFORD       CLOUDY    48  38  70 S14G21    29.69R
AINSWORTH      CLOUDY    46  38  75 S12       29.68R
O`NEILL        CLOUDY    48  43  83 S13G18    29.73R
ORD            MOSUNNY   49  44  83 S12       29.76R
BROKEN BOW     MOSUNNY   45  42  89 SE8       29.74S
VALENTINE NWR    N/A     40  35  81 S8          N/A  WCI  34
HALSEY           N/A     47  37  69 S12         N/A
CHAMBERS         N/A     47  45  92 S8          N/A
EWING            N/A     46  43  89 S8          N/A
$$

...OBSERVATIONS IN SOUTHWEST NEBRASKA AND FAR NORTHEAST COLORADO...

CITY           SKY/WX    TMP DP  RH WIND       PRES   REMARKS
HOLYOKE        FAIR      41  32  70 CALM      29.71R
IMPERIAL       CLOUDY    46  35  65 SE6       29.71R
OGALLALA       CLOUDY    46  36  67 S7        29.69R
NORTH PLATTE   MOSUNNY   49  40  71 SE10      29.72R
MCCOOK         CLOUDY    51  46  83 S8        29.74S
LEXINGTON      MOSUNNY   47  44  90 S10       29.76R
STAPLETON        N/A     45  40  83 CALM        N/A
GOTHENBURG       N/A     48  42  80 S10         N/A
CALLAWAY         N/A     45  43  94 S16         N/A
$$

...OBSERVATIONS IN CENTRAL LINCOLN COUNTY AREA...

CITY           SKY/WX    TMP DP  RH WIND       PRES   REMARKS
N.P. AIRPORT   MOSUNNY   49  40  71 SE10      29.72R
N.P. DOWNTOWN    N/A     47  41  80 SE7G16      N/A
N.P. SOUTHEAST   N/A     46  40  79 SE3         N/A
N.P. HILLCREST   N/A     47  41  80 S12G18      N/A
$$

...SOME OBSERVATIONS FROM AROUND THE REGION...

CITY           SKY/WX    TMP DP  RH WIND       PRES   REMARKS
LARAMIE        CLOUDY    28  23  81 S5        29.71S WCI  23
CHEYENNE       CLOUDY    42  25  50 W6        29.69R
DENVER         CLOUDY    40  24  53 SE5       29.71R
AKRON          CLOUDY    44  28  53 W10       29.69R
SCOTTSBLUFF    CLOUDY    34  27  75 CALM      29.66S
RAPID CITY     MOSUNNY   37  30  75 CALM      29.55F
BISMARCK       CLOUDY    36  33  89 E8        29.59F WCI  30
PIERRE         CLOUDY    42  34  73 SE13      29.59F
SIOUX FALLS    CLOUDY    46  38  73 SE9       29.79F
OMAHA          PTSUNNY   50  43  77 S10       29.89S
GRAND ISLAND   MOSUNNY   47  46  97 S15       29.82R FOG
KANSAS CITY    MOSUNNY   55  52  89 S9        29.98R
WICHITA        FOG       51  51 100 S12       29.92R VSB 1/8
OKLAHOMA CITY  FOG       57  57 100 S17       29.92R VSB 1/2
DALLAS         FOG       64  64 100 E6        29.89F VSB 1/2
AMARILLO       MOSUNNY   46  45  96 SE16      29.84R
DODGE CITY     CLOUDY    49  48  97 S13       29.86R FOG
HAYS           FOG       47  47 100 S9        29.85R VSB 1/4
GOODLAND       CLOUDY    48  37  65 S9        29.72R
$$




USA.gov is the U.S. government's official web portal to all federal, state and local government web resources and services.